When you browse on this site, cookies collect data to enhance your experience and personalize the content and advertising you see.
Visit our Privacy Policy to learn more. By continuing to use the site, you agree to this use of cookies and data.
  • In Latvia
  • List of Countries
  • For 7 days
  • Water Temperature
  • Satellite Maps
  • Weather Map
  • Weather Widgets
  • user-avatar
    Login

    Hourly Weather Jakubowice

    Today, 20 February, Wednesday

    Time Temperature Precipitation Wind Pressure Humidity
    00:00 +5°C° 0.4 mm 4 mps 744 mmHg 82%
    01:00 +5°C° 0 mm 4 mps 744 mmHg 84%
    02:00 +4°C° 0 mm 4 mps 744 mmHg 85%
    03:00 +4°C° 0 mm 4 mps 744 mmHg 86%
    04:00 +2°C° 0 mm 5 mps 744 mmHg 87%
    05:00 +2°C° 0 mm 5 mps 745 mmHg 86%
    06:00 +2°C° 0 mm 5 mps 745 mmHg 86%
    07:00 +1°C° 0 mm 5 mps 745 mmHg 86%
    08:00 +2°C° 0 mm 5 mps 745 mmHg 82%
    09:00 +3°C° 0 mm 6 mps 746 mmHg 78%
    10:00 +3°C° 0 mm 7 mps 746 mmHg 74%
    11:00 +4°C° 0 mm 7 mps 746 mmHg 72%
    12:00 +4°C° 0 mm 6 mps 746 mmHg 70%
    13:00 +4°C° 0 mm 6 mps 747 mmHg 68%
    14:00 +4°C° 0 mm 6 mps 747 mmHg 67%
    15:00 +4°C° 0 mm 6 mps 747 mmHg 66%
    16:00 +5°C° 0 mm 5 mps 747 mmHg 65%
    17:00 +5°C° 0 mm 5 mps 747 mmHg 69%
    18:00 +4°C° 0 mm 4 mps 748 mmHg 72%
    19:00 +4°C° 0 mm 3 mps 748 mmHg 76%
    20:00 +4°C° 0.1 mm 3 mps 748 mmHg 77%
    21:00 +4°C° 0.1 mm 3 mps 749 mmHg 77%
    22:00 +4°C° 0.1 mm 4 mps 749 mmHg 78%
    23:00 +4°C° 0 mm 4 mps 749 mmHg 79%

    Tomorrow, 21 February, Thursday

    Time Temperature Precipitation Wind Pressure Humidity
    00:00 +4°C° 0 mm 4 mps 749 mmHg 80%
    01:00 +3°C° 0 mm 3 mps 749 mmHg 81%
    02:00 +3°C° 0 mm 4 mps 750 mmHg 81%
    03:00 +3°C° 0 mm 4 mps 750 mmHg 81%
    04:00 +3°C° 0 mm 4 mps 750 mmHg 81%
    05:00 +3°C° 0 mm 4 mps 750 mmHg 81%
    06:00 +3°C° 0 mm 4 mps 750 mmHg 80%
    07:00 +3°C° 0 mm 4 mps 750 mmHg 80%
    08:00 +3°C° 0 mm 5 mps 750 mmHg 76%
    09:00 +5°C° 0 mm 5 mps 750 mmHg 71%
    10:00 +6°C° 0 mm 5 mps 750 mmHg 67%
    11:00 +6°C° 0 mm 5 mps 749 mmHg 65%
    12:00 +7°C° 0 mm 5 mps 749 mmHg 63%
    13:00 +7°C° 0 mm 5 mps 749 mmHg 61%
    14:00 +7°C° 0.4 mm 5 mps 748 mmHg 65%
    15:00 +6°C° 0.4 mm 5 mps 748 mmHg 68%
    16:00 +6°C° 0.4 mm 5 mps 748 mmHg 71%
    17:00 +5°C° 0.9 mm 6 mps 747 mmHg 74%
    18:00 +5°C° 0.9 mm 6 mps 747 mmHg 77%
    19:00 +4°C° 0.9 mm 7 mps 747 mmHg 80%
    20:00 +4°C° 0.5 mm 7 mps 747 mmHg 80%
    21:00 +4°C° 0.5 mm 7 mps 747 mmHg 80%
    22:00 +4°C° 0.5 mm 7 mps 746 mmHg 80%
    23:00 +4°C° 0.4 mm 6 mps 746 mmHg 82%

    Day after tomorrow, 22 February, Friday

    Time Temperature Precipitation Wind Pressure Humidity
    00:00 +4°C° 0.4 mm 6 mps 746 mmHg 84%
    01:00 +4°C° 0.4 mm 6 mps 745 mmHg 86%
    02:00 +4°C° 0.8 mm 6 mps 745 mmHg 87%
    03:00 +4°C° 0.8 mm 6 mps 745 mmHg 88%
    04:00 +4°C° 0.8 mm 6 mps 745 mmHg 89%
    05:00 +4°C° 0.5 mm 6 mps 745 mmHg 89%
    06:00 +4°C° 0.5 mm 6 mps 746 mmHg 88%
    07:00 +4°C° 0.5 mm 6 mps 746 mmHg 88%
    08:00 +2°C° 0.5 mm 6 mps 747 mmHg 84%
    09:00 0°C° 0.5 mm 7 mps 748 mmHg 80%
    10:00 -2°C° 0.5 mm 7 mps 750 mmHg 76%
    11:00 -2°C° 0 mm 7 mps 751 mmHg 71%
    12:00 -2°C° 0 mm 6 mps 752 mmHg 65%
    13:00 -2°C° 0 mm 6 mps 753 mmHg 59%
    14:00 -2°C° 0 mm 6 mps 754 mmHg 58%
    15:00 -2°C° 0 mm 6 mps 754 mmHg 56%
    16:00 -3°C° 0 mm 6 mps 755 mmHg 54%
    17:00 -4°C° 0 mm 6 mps 756 mmHg 56%
    18:00 -5°C° 0 mm 5 mps 756 mmHg 59%
    19:00 -6°C° 0 mm 5 mps 757 mmHg 61%
    20:00 -6°C° 0 mm 5 mps 758 mmHg 59%
    21:00 -6°C° 0 mm 5 mps 758 mmHg 57%
    22:00 -6°C° 0 mm 5 mps 759 mmHg 55%
    23:00 -7°C° 0 mm 4 mps 759 mmHg 52%

    23 February, Saturday

    Time Temperature Precipitation Wind Pressure Humidity
    00:00 -7°C° 0 mm 4 mps 759 mmHg 50%
    01:00 -7°C° 0 mm 4 mps 759 mmHg 48%
    02:00 -7°C° 0 mm 4 mps 759 mmHg 46%
    03:00 -7°C° 0 mm 4 mps 759 mmHg 45%
    04:00 -7°C° 0 mm 4 mps 760 mmHg 43%
    05:00 -8°C° 0 mm 4 mps 760 mmHg 43%
    06:00 -7°C° 0 mm 3 mps 760 mmHg 43%
    07:00 -7°C° 0 mm 3 mps 761 mmHg 43%
    08:00 -6°C° 0 mm 3 mps 761 mmHg 41%
    09:00 -7°C° 0 mm 4 mps 761 mmHg 38%
    10:00 -5°C° 0 mm 4 mps 762 mmHg 36%
    11:00 -4°C° 0 mm 4 mps 761 mmHg 33%
    12:00 -4°C° 0 mm 3 mps 761 mmHg 30%
    13:00 -2°C° 0 mm 3 mps 761 mmHg 28%
    14:00 -2°C° 0 mm 3 mps 761 mmHg 28%
    15:00 -2°C° 0 mm 3 mps 761 mmHg 29%
    16:00 -2°C° 0 mm 3 mps 761 mmHg 30%
    17:00 -4°C° 0 mm 3 mps 761 mmHg 33%
    18:00 -3°C° 0 mm 2 mps 761 mmHg 37%
    19:00 -4°C° 0 mm 2 mps 761 mmHg 41%
    20:00 -2°C° 0 mm 1 mps 761 mmHg 41%
    21:00 -2°C° 0 mm 1 mps 761 mmHg 42%
    22:00 -2°C° 0 mm 1 mps 761 mmHg 43%
    23:00 -2°C° 0 mm 1 mps 761 mmHg 43%

    24 February, Sunday

    Time Temperature Precipitation Wind Pressure Humidity
    00:00 -2°C° 0 mm 1 mps 760 mmHg 43%
    01:00 -2°C° 0 mm 1 mps 760 mmHg 43%
    02:00 -2°C° 0 mm 1 mps 760 mmHg 42%
    03:00 -2°C° 0 mm 1 mps 760 mmHg 41%
    04:00 -2°C° 0 mm 1 mps 760 mmHg 41%
    05:00 -2°C° 0 mm 1 mps 760 mmHg 41%
    06:00 -2°C° 0 mm 1 mps 760 mmHg 42%
    07:00 -2°C° 0 mm 1 mps 759 mmHg 42%
    08:00 -3°C° 0 mm 2 mps 759 mmHg 38%
    09:00 -2°C° 0 mm 2 mps 759 mmHg 35%
    10:00 -1°C° 0 mm 2 mps 759 mmHg 31%
    11:00 +1°C° 0 mm 2 mps 759 mmHg 32%
    12:00 +1°C° 0 mm 2 mps 759 mmHg 32%
    13:00 +1°C° 0 mm 3 mps 758 mmHg 32%
    14:00 +1°C° 0 mm 3 mps 758 mmHg 35%
    15:00 +2°C° 0 mm 2 mps 758 mmHg 37%
    16:00 +2°C° 0 mm 2 mps 758 mmHg 40%
    17:00 +1°C° 0 mm 2 mps 758 mmHg 43%
    18:00 -1°C° 0 mm 2 mps 758 mmHg 46%
    19:00 -1°C° 0 mm 2 mps 758 mmHg 49%
    20:00 -1°C° 0 mm 2 mps 758 mmHg 50%
    21:00 -1°C° 0 mm 2 mps 758 mmHg 51%
    22:00 -1°C° 0 mm 2 mps 758 mmHg 52%
    23:00 -1°C° 0 mm 2 mps 759 mmHg 53%

    25 February, Monday

    Time Temperature Precipitation Wind Pressure Humidity
    00:00 -1°C° 0 mm 2 mps 759 mmHg 53%
    01:00 -1°C° 0 mm 2 mps 759 mmHg 54%
    02:00 -1°C° 0 mm 2 mps 758 mmHg 56%
    03:00 -2°C° 0 mm 2 mps 758 mmHg 57%
    04:00 -2°C° 0 mm 2 mps 758 mmHg 59%
    05:00 -2°C° 0 mm 2 mps 758 mmHg 59%
    06:00 -2°C° 0 mm 2 mps 758 mmHg 59%
    07:00 -2°C° 0 mm 2 mps 758 mmHg 59%
    08:00 -1°C° 0 mm 2 mps 758 mmHg 59%
    09:00 0°C° 0 mm 3 mps 757 mmHg 60%
    10:00 +1°C° 0 mm 3 mps 757 mmHg 61%
    11:00 +1°C° 0 mm 4 mps 757 mmHg 58%
    12:00 +3°C° 0 mm 4 mps 756 mmHg 56%
    13:00 +3°C° 0 mm 5 mps 756 mmHg 54%
    14:00 +4°C° 0 mm 4 mps 756 mmHg 57%
    15:00 +3°C° 0 mm 4 mps 755 mmHg 60%
    16:00 +3°C° 0 mm 4 mps 755 mmHg 63%
    17:00 +1°C° 0 mm 4 mps 755 mmHg 71%
    18:00 +1°C° 0 mm 3 mps 756 mmHg 79%
    19:00 0°C° 0 mm 3 mps 756 mmHg 87%
    20:00 0°C° 0 mm 3 mps 756 mmHg 89%
    21:00 -1°C° 0 mm 3 mps 756 mmHg 90%
    22:00 -1°C° 0 mm 3 mps 756 mmHg 91%
    23:00 -1°C° 0 mm 3 mps 756 mmHg 91%
    Show more